Αρχική σελίδα
METAR-TAF:

METAR-TAF

Αεροδρόμια :

Chico, Καλιφόρνια, Ηνωμένες Πολιτείες Αμερικής

γεωγραφικό πλάτος: 39-48N, γεωγραφικό μήκος: 121-51W, υψόμετρο: 73 μ

Παρών καιρός

Η αναφορά έγινε 1 ώρα και 2 λεπτά πριν, στις 17:52 UTC
Ήπιος άνεμος
Θερμοκρασία 7°C
Υγρασία 36%
Πίεση 1021 hPa
Ορατότητα: 2.8 χλμ
Καθαρός ουρανός

METAR: KCIC 181752Z 00000KT 1 3/4SM FUHZ SKC 07/M07 A3014

Χρόνος: 10:54 (18:54 UTC)


TAF: λείπει

Μετεωρολογικές αναφορές και προγνώσεις για περισσότερα από 4000 αεροδρόμια (δελτία METAR και TAF).

Οι διαθέσιμοι σταθμοί απεικονίζονται στο χάρτη με κίτρινες και κόκκινες κουκκίδες.

Μετακινήστε το ποντίκι πάνω από τις κουκκίδες για να δείτε το όνομα του σταθμού.

Στη συνέχεια, κάντε κλικ για να δείτε τις μετεωρολογικές αναφορές και τις προγνώσεις καιρού.

Για να αλλάξετε το χάρτη: κάντε κλικ στα πράσινα κουμπιά με τον μαύρο σταυρό για να ζουμάρετε, στο πράσινο κουμπί με την παύλα για να αφαιρέσετε το ζουμ ή στα πράσινα βέλη για να αντιπαραβάλλετε χάρτες.


METAR-TAF: